Regional Weather Roundup
Issued by NWS New Orleans/Baton Rouge, LA

Home | Current Version | Previous Version | Text Only | Print | Product List | Glossary On
Versions: 1 2 3 4 5 6 7 8 9 10 11 12 13 14 15 16 17 18 19 20 21 22 23 24 25 26 27 28 29 30 31 32 33 34 35 36 37 38 39 40 41 42 43 44 45 46 47 48 49 50
000
ASUS44 KLIX 250713
RWRLIX
NEW ORLEANS REGIONAL WEATHER ROUNDUP
NATIONAL WEATHER SERVICE NEW ORLEANS LA
200 AM CDT SAT MAR 25 2017

NOTE: "FAIR" INDICATES FEW OR NO CLOUDS BELOW 12,000 FEET WITH NO
      SIGNIFICANT WEATHER AND/OR OBSTRUCTIONS TO VISIBILITY.
      SKY/WX - SKY CONDITION AND SIGNIFICANT WEATHER.
      TMP - AIR TEMPERATURE.     DP    - DEWPOINT TEMPERATURE.
      RH  - RELATIVE HUMIDITY.   PRES  - PRESSURE.
      HI  - HEAT INDEX.          WCI   - WIND CHILL INDEX.

*  THESE STATIONS ARE NOT NWS OR FAA STATIONS AND ARE NOT UNDER
   NWS QUALITY CONTROL.

LAZ038-040-048-061>063-065>067-069-250800-
SOUTHEAST LOUISIANA

CITY           SKY/WX    TMP DP  RH WIND       PRES   REMARKS
N.O. INTL ARPT CLOUDY    71  66  84 SE16      30.06F
N.O. LAKEFRONT CLOUDY    71  67  87 SE18G25   30.07F
N.O. DOWNTOWN*   N/A     71  66  84 S9G18     30.07F
RESERVE*       CLOUDY    73  68  86 S12       30.07R
SLIDELL        CLOUDY    71  66  84 SE10G20   30.08F
BATON ROUGE    MOCLDY    72  66  81 SE12      30.07R
BOOTHVILLE     MOCLDY    70  67  90 SE12      30.09F
BELLE CHASSE   CLOUDY   N/A N/A N/A SE15      30.07F
BOGALUSA*      NOT AVBL
GALLIANO*      CLOUDY    72  64  78 SE10G18   30.06F
NEW ROADS*       N/A     69  65  87 SE8       30.05F
GONZALES*      CLOUDY    71  66  84 S3        30.07R
HAMMOND*       CLOUDY    70  63  78 SE12      30.08R
HOUMA*         CLOUDY    72  67  84 SE18      30.05F
PORT FOURCHON* MOSUNNY   72  68  88 SE17G29   30.05F

$$

MSZ070-080>082-250800-
SOUTHERN MISSISSIPPI

CITY           SKY/WX    TMP DP  RH WIND       PRES   REMARKS
MCCOMB         CLOUDY    69  63  81 S10       30.08R
GULFPORT       CLOUDY    70  65  84 SE16G24   30.10F
BILOXI         CLOUDY    70  65  86 SE10G18   30.10F
PASCAGOULA     CLOUDY    68  62  81 SE14      30.11F

$$

COASTAL OBSERVATIONS
LAKE AND NEARSHORE STATIONS

STATION/POSITION TIME  TEMP    WIND        PRES    WAVE
                       AIR SEA DIR/SP/G            HT/PER
                 (UTC) (F)     (DEG/KT/KT) (MB)    (FT/S)
PASCAGOULA       0648          130/ 13/ 18 1019.2
WAVELAND YACHT   0648      71  150/ 17/ 20 1018.7
GRAND ISLE       0648      73  160/ 12/ 20 1017.8
SOUTHWEST PASS   0648          140/  9/ 15   N/A
NEW CANAL        0648      72  150/  5/ 10 1018.0
SHELL BEACH      0648      74  140/ 15/ 20 1018.5

OFFSHORE STATIONS

STATION/POSITION TIME  TEMP    WIND        PRES    WAVE
                       AIR SEA DIR/SP/G            HT/PER
                 (UTC) (F)     (DEG/KT/KT) (MB)    (FT/S)
64 S DAUPHIN ISL 0650   71 73  130/ 19/ 25 1019.5    7/ 8

$$




USA.gov is the U.S. government's official web portal to all federal, state and local government web resources and services.